MGGT

La Aurora International Airport

Airport
ICAO code
MGGT
IATA Code
GUA
Summary
ICAO Region
CARSAM
ICAO Territory
Location

Aurora, Guatemala Department

Serving
Guatemala City
Elevation
4951 ft
Coordinates
14° 34' 60" N , 90° 31' 39" W
KCC
Metar
MGGT 150000Z 18006KT 6000 SCT016 BKN080 21/18 Q1017 A3003 HZ

La Aurora International Airport serves Guatemala City, Guatemala.

Climatology

Tropical savannah climate (Köppen climate classification Aw)

Runways

Designator Length Width Surface Rops
1/19 2987 60 ASP Yes/Yes

Airport map

Aerial View

SKYbrary Partners:

Safety knowledge contributed by: